{"data":{"norad_id":62678,"intl_designator":"2025-009BX","name":"FLOCK 4G-15","alt_names":[],"object_type":"PAYLOAD","status":"ACTIVE","operator":null,"country":"US","launch_date":"2025-01-14","launch_site_code":"AFWTR","launch_vehicle":null,"mission":null,"orbit_class":"UNKNOWN","rcs_meters":null,"size_class":null,"mass_kg":null,"dimensions":null,"purposes":["earth_obs"],"wikipedia_slug":null,"has_3d_model":false,"image_url":null,"decayed_at":null,"tle_current":{"epoch":"2026-05-25T04:47:45.386304Z","epoch_age_seconds":51161,"freshness":"FRESH","line1":"1 62678U 25009BX  26145.19983086  .00009757  00000+0  35051-3 0  9991","line2":"2 62678  97.4017 227.1909 0005569  54.8787 305.2974 15.28847359133035","mean_motion":15.28847359,"eccentricity":0.0005569,"inclination_deg":97.4017,"raan_deg":227.1909,"arg_perigee_deg":54.8787,"mean_anomaly_deg":305.2974,"bstar":0.00035051,"rev_number":13303,"period_min":94.188604998598,"perigee_km":475.43790645262,"apogee_km":483.07567165487,"semimajor_km":6857.3937890537,"source":"CELESTRAK","updated_at":"2026-05-25T13:38:13.342804Z"}}}